www.pogodaiklimat.ru

Погода и климат >> Архив погоды >> Россия >> Забайкальский край >> Усть-Каренга


ПОГОДА в Усть-Каренге

  • Прогноз погоды в Усть-Каренге
  • Монитор погоды в Усть-Каренге

АРХИВ ПОГОДЫ в Усть-Каренге

Время (UTC), дата Ветер
(напр.,м/с)
 
Видим.   Явления Облачность Т
(С)
Тd
(С)
f
(%)
Тe
(С)
Тes
(С)
Комфортность P
(гПа)
Po
(гПа)
Тmin
(С)
Tmax
(С)
R
(мм)
R24
(мм)
S
(см)
15 13.08 В 1 н/о ясно +6.8 +6.2 96 +6 +6 1009.8 929.3
18 13.08 штиль 0 н/о туман ясно +2.7 +2.2 97 +1 +1 1010.3 928.6
21 13.08 Ю 1 200 м туман ?/? +2.4 +2.4 100 0 0 1010.6 928.8
00 14.08 Ю 1 200 м туман ?/? +5.0 +4.6 97 +4 +4 1009.9 929.0 +1.8
03 14.08 СВ 1 50 км {туман} 8/3 1000 м
[Sc diur, vesp Ac trans Ci sp]
+17.5 +6.7 49 +19 +23 1006.7 929.3
06 14.08 С 3 50 км {туман} 8/4 1000 м
[Cu med, cong Ac trans Ci sp]
+18.6 +2.8 35 +19 +22 1005.0 928.0
09 14.08 СЗ 3 50 км 10/6 600 м
[Cb cap Ac trans Ci fib]
+18.2 +4.7 41 +18 +18 1005.1 928.0
12 14.08 СЗ 2 50 км 8/4 600 м
[Sc diur, vesp Ac cuf Ci fib]
+12.5 +4.8 59 +12 +12 1006.6 928.0 +19.5
15 14.08 ЮЗ 1 н/о 4 балла +5.1 +3.6 90 +4 +4 1010.3 929.3
18 14.08 Ю 1 н/о 3/0
[Ac lent]
+2.8 +1.5 91 +1 +1 1010.8 929.1
00 15.08 ЮВ 1 50 км 3/0
[Ac lent Ci fib]
+8.0 +4.1 76 +7 +11 1011.1 930.9 0.0
03 15.08 СВ 2 50 км 2 балла +19.0 +6.5 44 +20 +29 1007.8 930.7
06 15.08 В 1 50 км 6/6 1000 м
[Cu med, cong]
+22.2 +6.0 35 +23 +28 комфорт 1005.4 929.3
09 15.08 СЗ 1 50 км 4 балла +20.1 +7.8 45 +22 +24 комфорт 1007.5 930.7
12 15.08 СЗ 2 50 км ясно +16.9 +5.7 48 +17 +17 1007.7 930.1 +22.7
15 15.08 ЮВ 2 н/о 1/0
[Ci fib]
+6.9 +5.8 93 +5 +5 1012.7 932.0
18 15.08 Ю 1 н/о туман ясно +3.0 +2.0 93 +1 +1 1013.9 932.0
00 16.08 штиль 0 800 м туман ясно +5.6 +5.0 96 +4 +10 1014.0 932.9 -0.8
03 16.08 штиль 0 50 км {туман} 3/0
[Ci fib]
+19.0 +7.7 48 +19 +32 опасность
простуды
1009.2 932.0
06 16.08 С 2 50 км {туман} 5/4 1000 м
[Cu med, cong Ci fib]
+22.3 +6.9 37 +23 +28 комфорт 1006.9 930.7
09 16.08 З 1 50 км 8/4 1000 м
[Sc diur, vesp Ci fib]
+23.3 +4.7 30 +23 +24 комфорт 1006.7 930.7
12 16.08 штиль 0 50 км 4/0
[Ac cuf Ci sp]
+13.1 +8.8 75 +13 +13 1008.2 929.7 +23.8
15 16.08 ЮВ 1 н/о 8/0
[Cs]
+7.2 +6.1 93 +6 +6 1011.2 930.7
18 16.08 В 1 н/о 8/0
[Ac trans Ci sp]
+3.2 +2.4 94 +2 +2 1011.9 930.2
21 16.08 ЮВ 1 50 км 9/3 600 м
[Sc Ac trans Ci sp]
+3.0 +2.5 97 +1 +1 1011.9 930.2
00 17.08 ЮВ 1 50 км 4/3 1000 м
[Sc Ci sp]
+7.6 +5.6 87 +7 +10 1010.6 930.4 +1.3
03 17.08 СЗ 1 50 км 8/3 600 м
[Cu med, cong Ci fib]
+19.9 +8.9 49 +22 +26 комфорт 1006.0 929.3
06 17.08 С 3 50 км 8/6 600 м
[Cb cap Ci fib]
+23.1 +6.8 35 +24 +26 комфорт 1002.4 926.7
09 17.08 СВ 3 50 км 8/5 600 м
[Cb cap Ci sp]
+23.5 +6.3 33 +24 +24 комфорт 1002.3 926.7
12 17.08 З 1 50 км {ливн. осадки} 8/6 600 м
[Cb cap Ci fib]
+14.6 +9.8 73 +15 +15 1004.6 926.8 +24.6 0.0
15 17.08 штиль 0 н/о 6/3 600 м
[Cb cap Ac trans Ci fib]
+9.6 +8.0 90 +9 +9 1007.5 928.0
18 17.08 штиль 0 н/о туман 3/3 600 м
[Sc]
+5.9 +5.4 97 +5 +5 1007.5 927.0
21 17.08 штиль 0 200 м туман ?/? +3.4 +3.2 99 +2 +2 1009.1 927.7
00 18.08 штиль 0 900 м туман 5/0
[Ac trans]
+7.5 +7.0 97 +6 +10 1009.2 929.1 +2.8
03 18.08 Ю 1 50 км {туман} 5/3 1000 м
[Cu med, cong Ac trans Ci fib]
+18.6 +9.6 56 +20 +27 1006.3 929.3
06 18.08 З 1 50 км 6 баллов +23.0 +6.7 35 +24 +28 комфорт 1003.8 928.0
09 18.08 СЗ 1 20 км дым 6/5 1000 м
[Cu med, cong Ci fib]
+21.0 +8.6 45 +24 +25 комфорт 1002.9 926.7
12 18.08 ЮЗ 2
{10}
50 км 10/10 600 м
[Cb cap]
+17.1 +7.5 53 +17 +17 1005.8 928.5 +24.4
15 18.08 ЮВ 1 н/о 8/8 600 м
[Cb cap]
+13.4 +9.1 75 +14 +14 1009.3 930.7
00 19.08 Ю 1 200 м туман ?/? +7.5 +7.0 97 +6 +6 1012.3 932.0 +4.5
03 19.08 Ю 1 20 км дым ясно +18.6 +9.4 55 +20 +33 опасность
простуды
1009.2 932.0
06 19.08 З 1 20 км дым 7 баллов +21.5 +6.2 37 +22 +26 комфорт 1007.1 930.7
09 19.08 штиль 0 20 км дым 7 баллов +24.4 +2.5 24 +24 +25 комфорт 1004.9 929.3
12 19.08 Ю 2 20 км дым 10/3 1000 м
[Sc diur, vesp Ac lent Ci sp]
+15.7 +9.1 65 +16 +16 1006.4 928.7 +25.1
15 19.08 СВ 1 н/о 10 баллов +11.6 +8.8 83 +11 +11 1008.3 929.3
00 20.08 С 1 10 км слаб. ливневой дождь 10/8 600 м
[Cb cap Ac und]
+11.7 +10.1 90 +11 +12 1008.2 929.4 +9.4 0.7
03 20.08 СВ 3 10 км слаб. ливневой дождь 10 баллов +13.4 +11.5 88 +12 +12 1007.7 929.3
06 20.08 СВ 2 10 км в посл. час ливневой дождь 10 баллов +13.5 +11.2 86 +13 +13 1007.7 929.3
09 20.08 СЗ 1 10 км слаб. ливневой дождь 10 баллов +12.8 +11.5 92 +13 +13 1007.9 929.3

 

Местоположение метеостанции Усть-Каренга (Забайкальский край, Россия): широта 54.43 долгота 116.50 высота над уровнем моря 688 м.

В архиве по умолчанию представлена погода в Усть-Каренге за последнюю неделю. Архивные данные за месяц целиком и за предыдущие месяцы, начиная с января 2011 года, Вы можете получить, выбрав интересующий диапазон дат из раскрывающегося списка и нажав кнопку "Ввод!".


*Определитесь, кто Вы:
робот инопланетянин человек

Внимание! Время в таблицах - всемирное. Для получения местного времени необходимо прибавить поправку, которая равна 9 ч.

Смотрите также архив погоды в соседних городах и на ближайших метеорологических станциях:

Погода в Тунгокочене (Забайкальский край, Россия) (116 км)
Погода в Ксеньевской (Забайкальский край, Россия) (174 км)
Погода в Багдарине (Бурятия, Россия) (194 км)
Погода в Чернышевске (Забайкальский край, Россия) (214 км)
Погода в Усугли (Забайкальский край, Россия) (219 км)
Погода в Уаките (Бурятия, Россия) (219 км)
Погода в Тупике (Забайкальский край, Россия) (220 км)
Погода в Троицком Прииске (Бурятия, Россия) (220 км)
Погода в Могоче (Забайкальский край, Россия) (222 км)
Погода в Баунте (Бурятия, Россия) (237 км)

Пояснения к столбцам:

Ветер - указаны скорость ветра в м/с - средняя за 10 мин, порывы в срок и между сроками (в фигурных скобках) и направление, откуда дует ветер: С - северный, СВ - северо-восточный, В - восточный, ЮВ - юго-восточный, Ю - южный, ЮЗ - юго-западный, З - западный, СЗ - северо-западный.
Видимость - горизонтальная дальность видимости в метрах или километрах. При видимости от 1 до 10 км при отсутствии осадков обычно наблюдается дымка, при ухудшении видимости до 1 км и менее - туман. В сухую погоду видимость может ухудшаться дымом, пылью или мглою.
Явления - указаны атмосферные явления, наблюдавшиеся в срок или в последний час перед сроком; фигурными скобками обозначены явления, наблюдавшиеся между сроками (за 1-3 часа до срока); квадратными скобками обозначены град или гололедные отложения с указанием их диаметра в мм.
Облачность - указаны через наклонную черту общая и нижняя облачность в баллах и высота нижней границы облаков в метрах; квадратными скобками обозначены формы облаков: Ci - перистые, Cs - перисто-слоистые, Cc - перисто-кучевые, Ac - высококучевые, As - высокослоистые, Sc - слоисто-кучевые, Ns - слоисто-дождевые, Cu - кучевые, Cb - кучево-дождевые. Подробнее классификацию облаков см. в Атласе облаков (PDF).
T - Температура воздуха - температура, измеренная на высоте 2 м над землей.
Td - Температура точки росы - температура, при понижении до которой содержащийся в воздухе водяной пар достигнет насыщения.
f - Относительная влажность воздуха - влажноcть воздуха, измеренная на высоте 2 м над землей.
Te - Эффективная температура - температура, которую ощущает одетый по сезону человек в тени. Характеристика душности погоды. При расчете учитывается влияние влажности воздуха и скорости ветра на теплоощущения человека.
Tes - Эффективная температура на солнце - температура, которую ощущает человек, с поправкой на солнечный нагрев. Характеристика знойности погоды. Зависит от высоты солнца над горизонтом, облачности и скорости ветра. Ночью, в пасмурную погоду, а также при ветре 12 м/с и более поправка равна нулю.
P - Атмосферное давление - приведенное к уровню моря атмосферное давление.
Po - Атмосферное давление - измеренное на уровне метеостанции атмосферное давление.
Tmin - Минимальная температура - минимум температуры воздуха на высоте 2 м над землей.
Tmax - Максимальная температура - максимум температуры воздуха на высоте 2 м над землей.
R - Количество осадков - Количество выпавших осадков за период времени, мм. При наведении курсора мыши на число - период времени, за который выпало указанное количество осадков.
R24 - Количество осадков - Количество выпавших осадков за 24 часа, мм.
S - Снежный покров - Высота снежного покрова, см. При наведении курсора мыши на число - состояние снежного покрова и степень покрытия местности в баллах.